K9MWM-1 Weather Reports


Display with metric or nautical units.
time (UTC)temp
F
wind
direction
speed
MPH
gust
MPH
rain 1hr
in
rain 24hr
in
rain mn
in
humidity
%
barometer
mb
20260906025716 69 67 0.0 0.0 0.00 0.00 0.00
20260906025204 70 230 0.0 0.0 0.00 0.00 0.00
20260906024650 70 216 0.0 0.0 0.00 0.00 0.00
20260906023625 70 180 0.0 0.0 0.00 0.00 0.00
20260906022046 71 180 0.0 0.0 0.00 0.00 0.00
20260906021021 71 337 0.0 0.0 0.00 0.00 0.00
20260906015441 74 225 0.0 0.0 0.00 0.00 0.00
20260906014928 75 292 0.0 0.0 0.00 0.00 0.00
20260906014415 76 90 0.0 0.0 0.00 0.00 0.00
20260906013903 77 90 0.0 0.0 0.00 0.00 0.00
20260906013350 79 151 0.0 0.0 0.00 0.00 0.00
20260906012837 81 337 0.0 0.0 0.00 0.00 0.00
20260906011811 85 304 0.0 0.0 0.00 0.00 0.00
20260906011259 86 295 0.0 0.0 0.00 0.00 0.00
20260906010233 88 293 0.0 0.0 0.00 0.00 0.00
20260906005720 88 310 0.0 0.0 0.00 0.00 0.00
20260906005207 89 305 0.0 0.0 0.00 0.00 0.00
20260906004654 89 297 0.0 0.0 0.00 0.00 0.00
20260906004141 90 293 0.0 0.0 0.00 0.00 0.00
20260906003629 91 295 0.0 0.0 0.00 0.00 0.00
20260906003116 91 299 0.0 0.0 0.00 0.00 0.00
20260906001025 93 292 0.0 0.0 0.00 0.00 0.00
20260905235446 93 292 0.0 0.0 0.00 0.00 0.00
20260905234934 93 292 0.0 0.0 0.00 0.00 0.00
20260905234420 93 292 0.0 0.0 0.00 0.00 0.00
20260905233907 92 299 0.0 0.0 0.00 0.00 0.00
20260905233355 91 295 0.0 0.0 0.00 0.00 0.00
20260905232843 90 292 0.0 0.0 0.00 0.00 0.00
20260905231817 89 295 0.0 0.0 0.00 0.00 0.00
20260905231303 89 294 0.0 0.0 0.00 0.00 0.00
20260905230751 89 294 0.0 0.0 0.00 0.00 0.00
20260905230238 88 295 0.0 0.0 0.00 0.00 0.00
20260905225212 91 292 0.0 0.0 0.00 0.00 0.00
20260905224659 91 295 0.0 0.0 0.00 0.00 0.00
20260905224146 92 303 0.0 0.0 0.00 0.00 0.00
20260905223633 92 293 0.0 0.0 0.00 0.00 0.00
20260905223121 91 292 0.0 0.0 0.00 0.00 0.00
20260905222608 90 297 0.0 0.0 0.00 0.00 0.00
20260905222055 91 299 0.0 0.0 0.00 0.00 0.00
20260905221542 91 292 0.0 0.0 0.00 0.00 0.00
20260905220517 90 292 0.0 0.0 0.00 0.00 0.00
20260905220004 90 294 0.0 0.0 0.00 0.00 0.00
20260905214938 91 303 0.0 0.0 0.00 0.00 0.00
20260905214425 93 292 0.0 0.0 0.00 0.00 0.00
20260905213913 94 295 0.0 0.0 0.00 0.00 0.00
20260905213359 93 300 0.0 0.0 0.00 0.00 0.00
20260905212846 93 296 0.0 0.0 0.00 0.00 0.00
20260905212334 94 298 0.0 0.0 0.00 0.00 0.00
20260905211823 94 292 0.0 0.0 0.00 0.00 0.00
20260905211308 94 292 0.0 0.0 0.00 0.00 0.00
20260905210242 93 297 0.0 0.0 0.00 0.00 0.00
20260905205730 93 318 0.0 0.0 0.00 0.00 0.00
20260905204151 91 299 0.0 0.0 0.00 0.00 0.00
20260905203638 92 300 0.0 0.0 0.00 0.00 0.00
20260905203125 92 295 0.0 0.0 0.00 0.00 0.00
20260905202612 92 294 0.0 0.0 0.00 0.00 0.00
20260905202100 91 295 0.0 0.0 0.00 0.00 0.00
20260905201549 91 293 0.0 0.0 0.00 0.00 0.00
20260905201034 92 296 0.0 0.0 0.00 0.00 0.00
20260905200009 91 292 0.0 0.0 0.00 0.00 0.00
20260905195456 90 294 0.0 0.0 0.00 0.00 0.00
20260905194944 90 292 0.0 0.0 0.00 0.00 0.00
20260905194429 89 288 0.0 0.0 0.00 0.00 0.00
20260905193404 90 302 0.0 0.0 0.00 0.00 0.00
20260905192851 92 296 0.0 0.0 0.00 0.00 0.00
20260905192338 92 181 0.0 0.0 0.00 0.00 0.00
20260905191826 92 167 0.0 0.0 0.00 0.00 0.00
20260905191316 92 162 0.0 0.0 0.00 0.00 0.00
20260905190801 91 127 0.0 0.0 0.00 0.00 0.00
20260905190247 92 135 0.0 0.0 0.00 0.00 0.00
20260905185221 92 298 0.0 0.0 0.00 0.00 0.00
20260905184709 93 292 0.0 0.0 0.00 0.00 0.00
20260905184155 92 315 0.0 0.0 0.00 0.00 0.00
20260905183643 91 296 0.0 0.0 0.00 0.00 0.00
20260905183130 91 309 0.0 0.0 0.00 0.00 0.00
20260905182617 90 277 0.0 0.0 0.00 0.00 0.00
20260905182105 89 298 0.0 0.0 0.00 0.00 0.00
20260905181551 88 159 0.0 0.0 0.00 0.00 0.00
20260905181039 86 286 0.0 0.0 0.00 0.00 0.00
20260905180013 88 285 0.0 0.0 0.00 0.00 0.00
20260905175500 89 290 0.0 0.0 0.00 0.00 0.00
20260905174948 89 294 0.0 0.0 0.00 0.00 0.00
20260905174435 89 289 0.0 0.0 0.00 0.00 0.00
20260905173921 89 292 0.0 0.0 0.00 0.00 0.00
20260905172858 86 295 0.0 0.0 0.00 0.00 0.00
20260905172343 85 292 0.0 0.0 0.00 0.00 0.00
20260905171317 85 155 0.0 0.0 0.00 0.00 0.00
20260905170805 85 315 0.0 0.0 0.00 0.00 0.00
20260905170255 84 315 0.0 0.0 0.00 0.00 0.00
20260905165740 85 162 0.0 0.0 0.00 0.00 0.00
20260905164713 84 162 0.0 0.0 0.00 0.00 0.00
20260905164201 82 151 0.0 0.0 0.00 0.00 0.00
20260905163647 79 356 0.0 0.0 0.00 0.00 0.00
20260905163135 76 113 0.0 0.0 0.00 0.00 0.00
20260905162110 76 165 0.0 0.0 0.00 0.00 0.00
20260905160018 74 140 0.0 0.0 0.00 0.00 0.00
20260905155506 75 212 0.0 0.0 0.00 0.00 0.00
20260905153927 72 270 0.0 0.0 0.00 0.00 0.00
20260905152901 66 140 0.0 0.0 0.00 0.00 0.00
20260905152349 66 270 0.0 0.0 0.00 0.00 0.00
20260905150256 66 189 0.0 0.0 0.00 0.00 0.00
20260905144206 61 136 0.0 0.0 0.00 0.00 0.00
20260905143141 59 145 0.0 0.0 0.00 0.00 0.00
20260905142627 58 133 0.0 0.0 0.00 0.00 0.00
20260905142114 58 144 0.0 0.0 0.00 0.00 0.00
20260905141049 58 286 0.0 0.0 0.00 0.00 0.00
20260905135510 54 315 0.0 0.0 0.00 0.00 0.00
20260905133932 52 0 0.0 0.0 0.00 0.00 0.00
20260905132905 51 92 0.0 0.0 0.00 0.00 0.00
20260905132352 51 315 0.0 0.0 0.00 0.00 0.00
20260905131840 51 337 0.0 0.0 0.00 0.00 0.00
20260905130302 51 337 0.0 0.0 0.00 0.00 0.00
20260905125749 52 337 0.0 0.0 0.00 0.00 0.00
20260905124725 52 99 0.0 0.0 0.00 0.00 0.00
20260905124210 53 67 0.0 0.0 0.00 0.00 0.00
20260905123657 53 337 0.0 0.0 0.00 0.00 0.00
20260905123145 53 337 0.0 0.0 0.00 0.00 0.00
20260905122632 54 337 0.0 0.0 0.00 0.00 0.00
20260905122119 53 123 0.0 0.0 0.00 0.00 0.00
20260905121053 53 337 0.0 0.0 0.00 0.00 0.00
20260905120541 53 337 0.0 0.0 0.00 0.00 0.00
20260905120027 53 337 0.0 0.0 0.00 0.00 0.00
20260905115002 54 337 0.0 0.0 0.00 0.00 0.00
20260905114449 54 337 0.0 0.0 0.00 0.00 0.00
20260905113936 54 0 0.0 0.0 0.00 0.00 0.00
20260905113423 54 225 0.0 0.0 0.00 0.00 0.00
20260905112357 54 337 0.0 0.0 0.00 0.00 0.00
20260905111845 55 137 0.0 0.0 0.00 0.00 0.00
20260905111332 55 135 0.0 0.0 0.00 0.00 0.00
20260905110820 55 104 0.0 0.0 0.00 0.00 0.00
20260905105753 55 337 0.0 0.0 0.00 0.00 0.00
20260905105240 55 337 0.0 0.0 0.00 0.00 0.00
20260905104728 55 292 0.0 0.0 0.00 0.00 0.00
20260905104215 55 107 0.0 0.0 0.00 0.00 0.00
20260905103702 55 337 0.0 0.0 0.00 0.00 0.00
20260905103149 56 337 0.0 0.0 0.00 0.00 0.00
20260905102636 56 337 0.0 0.0 0.00 0.00 0.00
20260905102123 57 0 0.0 0.0 0.00 0.00 0.00
20260905101610 57 337 0.0 0.0 0.00 0.00 0.00
20260905101057 57 90 0.0 0.0 0.00 0.00 0.00
20260905100033 58 337 0.0 0.0 0.00 0.00 0.00
20260905095520 58 337 0.0 0.0 0.00 0.00 0.00
20260905094453 58 90 0.0 0.0 0.00 0.00 0.00
20260905093429 57 337 0.0 0.0 0.00 0.00 0.00
20260905091849 55 236 0.0 0.0 0.00 0.00 0.00
20260905085758 55 337 0.0 0.0 0.00 0.00 0.00
20260905084219 54 46 0.0 0.0 0.00 0.00 0.00
20260905082641 55 337 0.0 0.0 0.00 0.00 0.00
20260905082128 55 337 0.0 0.0 0.00 0.00 0.00
20260905081615 55 337 0.0 0.0 0.00 0.00 0.00
20260905081104 56 337 0.0 0.0 0.00 0.00 0.00
20260905080037 56 337 0.0 0.0 0.00 0.00 0.00
20260905075525 56 337 0.0 0.0 0.00 0.00 0.00
20260905073432 56 337 0.0 0.0 0.00 0.00 0.00
20260905072920 56 82 0.0 0.0 0.00 0.00 0.00
20260905071341 56 337 0.0 0.0 0.00 0.00 0.00
20260905070315 56 337 0.0 0.0 0.00 0.00 0.00
20260905064737 58 337 0.0 0.0 0.00 0.00 0.00
20260905063711 58 270 0.0 0.0 0.00 0.00 0.00
20260905063158 58 337 0.0 0.0 0.00 0.00 0.00
20260905062646 58 337 0.0 0.0 0.00 0.00 0.00
20260905061620 59 358 0.0 0.0 0.00 0.00 0.00
20260905061107 60 337 0.0 0.0 0.00 0.00 0.00
20260905055528 60 337 0.0 0.0 0.00 0.00 0.00
20260905055016 60 337 0.0 0.0 0.00 0.00 0.00
20260905053437 60 247 0.0 0.0 0.00 0.00 0.00
20260905052924 60 337 0.0 0.0 0.00 0.00 0.00
20260905051900 61 337 0.0 0.0 0.00 0.00 0.00
20260905050320 62 337 0.0 0.0 0.00 0.00 0.00
20260905045807 62 67 0.0 0.0 0.00 0.00 0.00
20260905045254 62 168 0.0 0.0 0.00 0.00 0.00
20260905044742 62 337 0.0 0.0 0.00 0.00 0.00
20260905044230 62 337 0.0 0.0 0.00 0.00 0.00
20260905043205 63 337 0.0 0.0 0.00 0.00 0.00
20260905042650 63 337 0.0 0.0 0.00 0.00 0.00
20260905042138 64 337 0.0 0.0 0.00 0.00 0.00
20260905041625 64 337 0.0 0.0 0.00 0.00 0.00
20260905041112 65 337 0.0 0.0 0.00 0.00 0.00
20260905040559 65 337 0.0 0.0 0.00 0.00 0.00
20260905035533 66 0 0.0 0.0 0.00 0.00 0.00
20260905035020 66 256 0.0 0.0 0.00 0.00 0.00
20260905034508 66 337 0.0 0.0 0.00 0.00 0.00
20260905033955 67 337 0.0 0.0 0.00 0.00 0.00
20260905032929 67 322 0.0 0.0 0.00 0.00 0.00
20260905032416 67 298 0.0 0.0 0.00 0.00 0.00
20260905031903 67 33 0.0 0.0 0.00 0.00 0.00
20260905030838 67 73 0.0 0.0 0.00 0.00 0.00
20260905030326 67 33 0.0 0.0 0.00 0.00 0.00